GEFSMA_prec_meanprecacc_228.txt.gz
Total_Precipitation_Accumulation
1.96 2.04 2.07 2.11 1.96 2.08 2.28 2.51 2.41 2.48 2.52 2.30 2.04 1.93 2.00 1.98 2.08 2.06 2.03 2.25 2.19 2.20 2.68 2.81 2.48 2.13 1.95 1.68 1.47 1.25 1.12 1.04 0.91 0.72 0.61 0.66 0.73 0.80 0.73 0.63 0.59 0.55 0.48
2.37 2.32 2.17 2.18 2.08 2.10 2.21 2.42 2.48 2.82 2.79 2.72 2.32 2.11 2.13 2.15 2.17 2.28 2.20 2.47 2.35 2.10 2.36 2.63 2.71 2.55 2.30 2.09 1.81 1.53 1.32 1.23 1.08 0.81 0.70 0.66 0.71 0.78 0.76 0.75 0.70 0.65 0.55
2.55 2.48 2.37 2.19 2.19 2.23 2.38 2.45 2.55 2.83 2.85 2.77 2.60 2.39 2.29 2.05 1.93 1.99 2.03 2.19 2.13 2.03 2.14 2.36 2.66 2.75 2.63 2.49 2.30 2.05 1.72 1.45 1.25 1.01 0.83 0.70 0.63 0.68 0.70 0.73 0.75 0.72 0.61
2.60 2.64 2.43 2.17 2.29 2.25 2.39 2.68 2.78 2.93 3.07 3.08 2.83 2.56 2.40 2.21 1.98 1.93 1.83 1.80 1.99 1.67 1.89 2.15 2.38 2.55 2.82 2.95 2.97 2.88 2.44 1.91 1.51 1.29 1.07 0.87 0.72 0.67 0.63 0.65 0.70 0.66 0.56
2.51 2.61 2.41 2.30 2.37 2.53 2.57 2.41 2.90 3.17 3.22 3.20 2.69 2.57 2.21 2.06 1.90 1.74 1.73 1.60 1.66 1.67 1.75 1.81 1.97 2.12 2.64 3.26 3.59 3.62 3.37 2.68 2.05 1.71 1.50 1.28 1.04 0.89 0.70 0.62 0.61 0.55 0.48
2.39 2.62 2.32 2.29 2.46 2.67 2.70 2.76 3.14 3.25 3.10 3.23 2.73 2.36 1.97 1.64 1.57 1.54 1.45 1.44 1.40 1.33 1.40 1.71 2.04 1.85 2.27 2.85 3.18 3.40 3.64 3.50 2.87 2.20 1.91 1.71 1.52 1.26 0.94 0.75 0.68 0.64 0.56
2.54 2.88 2.54 2.69 2.60 2.62 2.66 2.82 3.03 2.99 2.85 3.21 3.21 2.49 1.73 1.31 1.26 1.14 1.13 1.17 1.10 1.14 1.37 1.80 2.10 2.14 1.90 1.95 2.20 2.57 3.15 3.53 3.37 2.80 2.41 2.17 2.01 1.65 1.26 1.04 0.88 0.78 0.71
2.68 2.65 2.77 2.67 2.68 2.73 2.56 2.65 2.92 2.77 2.43 2.81 3.11 3.05 2.25 1.72 1.29 0.86 0.95 0.99 1.04 1.22 1.28 1.37 1.74 2.10 2.01 2.18 1.94 1.81 2.41 3.10 3.55 3.49 3.10 2.70 2.37 1.98 1.65 1.45 1.21 1.01 0.86
2.71 2.72 2.62 2.51 2.58 2.51 2.43 2.41 2.60 2.71 2.50 2.48 2.85 3.19 2.59 1.95 1.51 1.05 0.97 0.93 1.17 1.47 1.48 1.50 1.62 1.87 2.01 2.22 2.31 2.19 2.04 2.27 2.97 3.79 3.87 3.27 2.60 2.11 1.85 1.79 1.72 1.47 1.25
2.98 2.76 2.56 2.43 2.32 2.22 2.30 2.08 2.32 2.51 2.60 2.27 2.38 2.47 2.34 2.25 2.15 1.56 1.17 1.08 1.34 1.52 1.57 1.56 1.61 1.76 1.90 2.21 2.44 2.31 1.88 1.69 2.05 3.02 3.68 3.61 3.05 2.35 1.97 2.01 2.31 2.20 1.77
3.06 2.73 2.63 2.52 2.40 2.25 2.17 2.10 2.26 2.19 2.23 2.18 2.22 2.22 2.23 2.22 2.12 1.96 1.60 1.45 1.39 1.18 1.21 1.33 1.54 1.80 1.89 2.04 2.35 2.24 2.03 1.95 1.91 2.03 2.38 2.74 2.90 2.64 2.36 2.39 2.80 3.06 2.81
2.67 2.47 2.41 2.35 2.22 2.19 2.17 2.12 2.09 2.06 2.11 2.18 2.15 2.11 2.18 2.20 2.17 2.24 1.93 1.69 1.54 1.29 1.24 1.29 1.43 1.61 1.69 1.76 1.80 1.94 1.90 1.89 1.78 1.70 1.71 1.82 2.06 2.35 2.57 2.79 3.19 3.56 3.70
1.92 1.91 2.00 2.01 1.95 1.97 2.00 2.09 1.97 1.88 1.98 2.11 2.08 2.07 2.13 2.13 2.18 2.28 2.20 1.83 1.70 1.50 1.53 1.44 1.35 1.51 1.54 1.71 1.86 1.82 1.57 1.57 1.43 1.39 1.39 1.44 1.60 1.82 2.00 2.23 2.68 3.18 3.59
1.66 1.73 1.82 1.78 1.75 1.78 1.74 1.94 1.79 1.72 1.82 1.86 1.79 2.09 2.08 1.86 2.05 2.21 2.28 2.27 2.07 1.90 1.96 1.75 1.51 1.47 1.58 1.72 1.82 1.75 1.50 1.37 1.18 1.08 1.08 1.10 1.17 1.32 1.53 1.75 2.00 2.26 2.58
1.65 1.70 1.65 1.71 1.73 1.76 1.83 1.93 1.79 1.74 1.92 1.86 1.81 2.02 2.00 1.88 1.96 2.06 2.26 2.42 2.51 2.31 2.17 2.02 1.71 1.56 1.60 1.65 1.82 1.68 1.66 1.50 1.21 1.09 1.05 1.03 1.01 1.07 1.21 1.41 1.59 1.74 1.96
1.73 1.75 1.71 1.76 1.73 1.71 1.74 1.80 1.60 1.62 1.82 1.87 1.95 2.13 2.09 2.00 2.03 2.07 2.22 2.45 2.69 2.69 2.33 1.91 1.75 1.70 1.79 1.72 1.90 1.65 1.59 1.63 1.38 1.17 1.06 1.07 1.05 1.06 1.10 1.25 1.42 1.56 1.69
1.75 1.71 1.67 1.68 1.67 1.63 1.69 1.72 1.55 1.67 1.79 1.83 1.84 1.99 2.06 2.16 2.18 2.16 2.28 2.39 2.65 2.90 2.62 2.12 2.00 2.01 2.12 2.09 1.98 1.73 1.54 1.46 1.31 1.26 1.11 1.05 1.04 1.05 1.10 1.17 1.31 1.44 1.53
1.72 1.75 1.73 1.71 1.61 1.63 1.80 1.85 1.74 1.81 1.88 1.86 1.89 2.01 1.94 2.09 2.24 2.20 2.32 2.34 2.44 2.74 2.66 2.40 2.34 2.29 2.27 2.18 2.16 1.96 1.66 1.51 1.44 1.39 1.18 1.07 1.05 1.03 1.07 1.10 1.20 1.36 1.48
1.77 1.85 1.88 1.90 1.88 1.90 1.90 1.96 2.05 2.03 1.95 1.86 1.91 1.91 1.88 2.06 2.08 2.18 2.30 2.27 2.25 2.40 2.58 2.52 2.48 2.54 2.51 2.39 2.29 2.12 1.93 1.86 1.58 1.51 1.41 1.30 1.26 1.23 1.22 1.20 1.20 1.27 1.38
1.84 1.96 1.96 2.07 2.24 2.29 2.28 2.22 2.14 2.08 2.01 1.95 1.92 1.88 1.86 1.90 1.94 2.01 2.12 2.22 2.29 2.40 2.52 2.55 2.59 2.73 2.70 2.73 2.68 2.45 2.33 2.24 1.94 1.60 1.59 1.47 1.40 1.30 1.22 1.15 1.13 1.18 1.28
1.76 2.04 2.17 2.23 2.48 2.62 2.47 2.47 2.39 2.29 2.27 2.10 1.98 1.89 1.78 1.79 1.85 1.88 1.85 1.96 2.09 2.23 2.25 2.34 2.41 2.63 2.70 2.81 2.80 2.64 2.51 2.49 2.30 1.88 1.72 1.59 1.51 1.39 1.35 1.31 1.22 1.17 1.21
1.66 1.83 1.96 2.08 2.13 1.98 2.13 2.15 2.14 2.17 2.20 2.10 2.03 1.96 1.82 1.72 1.70 1.66 1.56 1.57 1.65 1.75 1.93 2.14 2.22 2.43 2.62 2.78 2.98 3.04 2.88 2.69 2.54 2.24 2.11 1.97 1.71 1.62 1.45 1.31 1.28 1.11 1.01
1.63 1.72 1.74 1.81 1.78 1.84 1.86 1.64 1.59 1.57 1.73 1.84 1.91 1.90 1.68 1.53 1.62 1.55 1.57 1.53 1.52 1.61 1.71 1.93 2.12 2.22 2.44 2.64 2.88 3.02 3.01 2.89 2.70 2.53 2.39 2.24 1.91 1.70 1.50 1.37 1.29 1.05 0.90
1.68 1.64 1.68 1.72 1.80 1.80 1.70 1.47 1.46 1.42 1.55 1.67 1.74 1.78 1.75 1.68 1.68 1.71 1.63 1.51 1.43 1.50 1.59 1.57 1.61 1.77 2.03 2.38 2.56 2.60 2.74 2.76 2.61 2.45 2.38 2.34 2.08 1.87 1.65 1.51 1.41 1.13 0.96
1.84 1.77 1.81 1.87 1.87 1.82 1.69 1.48 1.48 1.43 1.53 1.57 1.59 1.61 1.63 1.59 1.66 1.54 1.44 1.42 1.42 1.45 1.44 1.42 1.38 1.42 1.56 1.78 2.11 2.25 2.34 2.31 2.20 1.96 1.85 1.92 1.90 1.86 1.78 1.65 1.46 1.29 1.08
2.23 2.21 2.12 2.02 1.91 1.81 1.78 1.49 1.40 1.36 1.44 1.51 1.59 1.56 1.50 1.38 1.35 1.30 1.28 1.40 1.38 1.37 1.41 1.35 1.26 1.20 1.16 1.31 1.62 1.79 1.87 1.91 1.81 1.76 1.50 1.48 1.53 1.58 1.69 1.56 1.40 1.32 1.24

GEFSMA_prec_meanprecacc_234.txt.gz
Total_Precipitation_Accumulation
2.05 2.12 2.16 2.19 2.02 2.14 2.32 2.56 2.46 2.54 2.57 2.34 2.06 1.96 2.05 2.06 2.16 2.15 2.11 2.31 2.24 2.25 2.73 2.85 2.54 2.18 1.99 1.71 1.50 1.28 1.14 1.06 0.93 0.74 0.63 0.68 0.75 0.81 0.74 0.64 0.60 0.57 0.50
2.42 2.37 2.22 2.25 2.13 2.14 2.25 2.48 2.55 2.90 2.88 2.78 2.35 2.16 2.20 2.23 2.23 2.33 2.25 2.50 2.38 2.13 2.38 2.67 2.76 2.61 2.36 2.13 1.86 1.57 1.36 1.25 1.11 0.85 0.73 0.68 0.72 0.79 0.77 0.77 0.72 0.66 0.57
2.59 2.51 2.43 2.25 2.24 2.28 2.44 2.54 2.63 2.90 2.92 2.84 2.66 2.46 2.35 2.10 1.97 2.03 2.06 2.22 2.18 2.07 2.17 2.39 2.69 2.80 2.69 2.55 2.38 2.13 1.78 1.49 1.28 1.05 0.86 0.72 0.64 0.70 0.72 0.77 0.78 0.75 0.64
2.63 2.67 2.46 2.21 2.33 2.30 2.45 2.75 2.86 3.03 3.18 3.18 2.89 2.62 2.48 2.28 2.03 1.98 1.87 1.85 2.04 1.72 1.94 2.19 2.41 2.57 2.86 3.01 3.06 2.96 2.51 1.97 1.55 1.33 1.10 0.89 0.75 0.71 0.66 0.69 0.75 0.71 0.60
2.52 2.63 2.45 2.34 2.41 2.58 2.62 2.46 2.99 3.27 3.32 3.32 2.77 2.65 2.29 2.13 1.97 1.82 1.82 1.66 1.72 1.73 1.81 1.85 2.00 2.14 2.68 3.32 3.65 3.69 3.43 2.74 2.12 1.77 1.54 1.31 1.08 0.93 0.75 0.67 0.66 0.60 0.52
2.41 2.65 2.36 2.33 2.49 2.73 2.77 2.84 3.23 3.33 3.18 3.32 2.80 2.44 2.04 1.70 1.63 1.60 1.49 1.47 1.44 1.37 1.46 1.78 2.13 1.93 2.34 2.91 3.24 3.45 3.70 3.56 2.93 2.27 1.98 1.77 1.58 1.33 1.02 0.83 0.75 0.71 0.62
2.55 2.91 2.58 2.76 2.67 2.70 2.76 2.91 3.16 3.11 2.94 3.29 3.31 2.59 1.80 1.37 1.35 1.22 1.18 1.21 1.15 1.20 1.46 1.89 2.22 2.28 2.05 2.06 2.27 2.63 3.22 3.59 3.43 2.86 2.48 2.25 2.11 1.77 1.38 1.17 1.01 0.89 0.81
2.71 2.68 2.83 2.74 2.77 2.84 2.67 2.76 3.07 2.91 2.55 2.95 3.26 3.18 2.36 1.82 1.37 0.92 1.02 1.06 1.12 1.28 1.35 1.44 1.83 2.20 2.12 2.29 2.01 1.86 2.45 3.16 3.62 3.56 3.18 2.79 2.48 2.11 1.80 1.61 1.36 1.13 0.95
2.75 2.77 2.68 2.58 2.67 2.61 2.55 2.55 2.77 2.86 2.63 2.63 3.02 3.36 2.74 2.08 1.60 1.10 1.00 0.97 1.21 1.51 1.52 1.54 1.68 1.95 2.08 2.33 2.40 2.25 2.07 2.30 3.02 3.87 3.96 3.36 2.71 2.22 1.94 1.87 1.80 1.55 1.32
3.02 2.80 2.62 2.51 2.42 2.32 2.42 2.20 2.46 2.66 2.73 2.40 2.53 2.62 2.48 2.39 2.27 1.64 1.23 1.13 1.40 1.58 1.63 1.62 1.69 1.84 2.00 2.33 2.57 2.40 1.92 1.72 2.09 3.09 3.79 3.71 3.13 2.43 2.04 2.08 2.38 2.27 1.84
3.10 2.76 2.68 2.58 2.47 2.33 2.26 2.21 2.38 2.30 2.36 2.32 2.35 2.37 2.38 2.38 2.25 2.06 1.68 1.53 1.47 1.25 1.28 1.42 1.64 1.89 1.99 2.18 2.50 2.38 2.14 2.02 1.96 2.08 2.44 2.80 2.98 2.72 2.43 2.44 2.86 3.13 2.89
2.71 2.51 2.44 2.39 2.28 2.27 2.27 2.24 2.21 2.17 2.23 2.30 2.27 2.24 2.33 2.34 2.30 2.36 2.04 1.78 1.62 1.36 1.31 1.38 1.52 1.69 1.77 1.86 1.90 2.04 1.98 1.95 1.83 1.74 1.75 1.87 2.13 2.42 2.63 2.85 3.26 3.62 3.75
1.96 1.95 2.04 2.07 2.01 2.05 2.07 2.18 2.08 2.00 2.09 2.22 2.17 2.17 2.25 2.26 2.31 2.42 2.31 1.92 1.78 1.58 1.63 1.53 1.43 1.59 1.63 1.79 1.96 1.93 1.65 1.61 1.46 1.42 1.41 1.47 1.63 1.86 2.05 2.27 2.73 3.24 3.65
1.69 1.76 1.86 1.84 1.81 1.83 1.80 2.01 1.87 1.81 1.90 1.94 1.87 2.19 2.20 1.96 2.16 2.31 2.38 2.37 2.15 1.98 2.05 1.84 1.60 1.56 1.67 1.81 1.92 1.85 1.57 1.44 1.23 1.13 1.12 1.14 1.20 1.35 1.55 1.78 2.03 2.30 2.63
1.70 1.76 1.71 1.78 1.79 1.83 1.89 1.99 1.85 1.80 1.97 1.92 1.88 2.10 2.06 1.95 2.03 2.15 2.35 2.51 2.58 2.38 2.24 2.09 1.79 1.63 1.68 1.73 1.91 1.75 1.74 1.59 1.29 1.16 1.11 1.08 1.06 1.12 1.25 1.45 1.63 1.78 2.00
1.77 1.80 1.77 1.84 1.80 1.76 1.79 1.84 1.65 1.66 1.86 1.92 2.00 2.18 2.14 2.05 2.10 2.15 2.30 2.55 2.79 2.77 2.40 1.97 1.80 1.76 1.86 1.79 1.97 1.73 1.67 1.70 1.43 1.21 1.11 1.11 1.09 1.09 1.15 1.30 1.46 1.60 1.74
1.79 1.74 1.70 1.71 1.70 1.67 1.73 1.76 1.59 1.71 1.83 1.88 1.90 2.04 2.11 2.21 2.24 2.24 2.38 2.50 2.73 2.96 2.68 2.16 2.05 2.06 2.17 2.15 2.04 1.79 1.57 1.49 1.34 1.29 1.14 1.07 1.06 1.08 1.14 1.20 1.33 1.46 1.55
1.76 1.78 1.76 1.75 1.64 1.66 1.83 1.88 1.77 1.84 1.92 1.89 1.93 2.05 1.98 2.13 2.28 2.26 2.38 2.39 2.49 2.79 2.70 2.45 2.39 2.33 2.32 2.22 2.22 2.02 1.70 1.54 1.47 1.43 1.22 1.10 1.07 1.05 1.09 1.12 1.22 1.38 1.50
1.80 1.88 1.91 1.93 1.90 1.92 1.92 1.98 2.07 2.05 1.98 1.89 1.95 1.95 1.91 2.10 2.11 2.22 2.35 2.32 2.29 2.44 2.62 2.57 2.52 2.59 2.54 2.42 2.34 2.16 1.98 1.91 1.61 1.53 1.44 1.32 1.29 1.26 1.24 1.22 1.22 1.29 1.40
1.88 1.99 1.99 2.10 2.27 2.31 2.29 2.23 2.14 2.09 2.04 1.98 1.95 1.91 1.88 1.92 1.96 2.04 2.17 2.26 2.32 2.44 2.56 2.60 2.64 2.76 2.73 2.76 2.72 2.49 2.37 2.29 1.97 1.61 1.60 1.50 1.43 1.34 1.25 1.17 1.15 1.20 1.30
1.78 2.07 2.20 2.27 2.51 2.64 2.48 2.48 2.40 2.31 2.29 2.12 2.01 1.92 1.79 1.80 1.86 1.90 1.87 1.97 2.11 2.25 2.28 2.37 2.45 2.66 2.73 2.83 2.83 2.68 2.55 2.52 2.33 1.91 1.74 1.61 1.54 1.43 1.39 1.35 1.25 1.20 1.24
1.69 1.85 1.99 2.10 2.15 2.00 2.15 2.16 2.15 2.18 2.22 2.11 2.04 1.98 1.83 1.73 1.70 1.67 1.57 1.59 1.67 1.78 1.96 2.18 2.26 2.45 2.65 2.81 3.01 3.07 2.91 2.72 2.57 2.28 2.15 2.02 1.76 1.67 1.49 1.35 1.32 1.14 1.04
1.64 1.73 1.75 1.82 1.80 1.85 1.87 1.65 1.60 1.58 1.74 1.85 1.92 1.92 1.69 1.54 1.62 1.55 1.58 1.54 1.53 1.64 1.73 1.96 2.14 2.24 2.46 2.66 2.90 3.05 3.04 2.92 2.73 2.57 2.43 2.30 1.98 1.77 1.56 1.43 1.34 1.09 0.94
1.69 1.65 1.69 1.73 1.82 1.82 1.73 1.50 1.47 1.43 1.56 1.68 1.76 1.79 1.76 1.69 1.68 1.72 1.64 1.52 1.44 1.51 1.60 1.57 1.62 1.78 2.04 2.40 2.58 2.62 2.77 2.79 2.66 2.48 2.42 2.39 2.14 1.92 1.71 1.57 1.47 1.17 0.99
1.85 1.78 1.82 1.89 1.89 1.85 1.73 1.52 1.49 1.44 1.55 1.59 1.60 1.63 1.65 1.60 1.67 1.55 1.45 1.43 1.42 1.46 1.44 1.42 1.38 1.42 1.56 1.78 2.11 2.27 2.36 2.33 2.22 1.98 1.87 1.95 1.93 1.90 1.82 1.69 1.50 1.32 1.10
2.25 2.22 2.14 2.03 1.92 1.84 1.82 1.53 1.42 1.37 1.47 1.54 1.62 1.59 1.53 1.40 1.37 1.31 1.30 1.41 1.39 1.38 1.42 1.36 1.27 1.20 1.16 1.31 1.62 1.80 1.89 1.93 1.83 1.77 1.51 1.49 1.54 1.59 1.71 1.58 1.41 1.33 1.25

GEFSMA_prec_meanprecacc_240.txt.gz
Total_Precipitation_Accumulation
2.09 2.17 2.24 2.24 2.07 2.19 2.37 2.62 2.50 2.57 2.61 2.38 2.10 1.99 2.09 2.11 2.20 2.20 2.16 2.36 2.28 2.28 2.75 2.88 2.57 2.21 2.01 1.74 1.53 1.29 1.15 1.07 0.95 0.75 0.65 0.70 0.76 0.82 0.76 0.66 0.61 0.58 0.51
2.46 2.41 2.27 2.30 2.18 2.18 2.29 2.51 2.58 2.92 2.91 2.83 2.38 2.19 2.24 2.28 2.28 2.39 2.30 2.54 2.41 2.15 2.40 2.69 2.79 2.64 2.38 2.16 1.89 1.60 1.39 1.28 1.12 0.86 0.74 0.70 0.73 0.81 0.78 0.78 0.73 0.68 0.59
2.63 2.54 2.45 2.27 2.27 2.32 2.49 2.58 2.67 2.94 2.96 2.89 2.72 2.53 2.41 2.17 2.04 2.10 2.11 2.26 2.21 2.11 2.21 2.44 2.73 2.83 2.73 2.58 2.41 2.16 1.81 1.54 1.32 1.07 0.89 0.74 0.66 0.72 0.74 0.78 0.80 0.78 0.67
2.66 2.70 2.50 2.24 2.35 2.33 2.49 2.79 2.90 3.07 3.22 3.23 2.94 2.68 2.53 2.35 2.10 2.04 1.93 1.90 2.11 1.80 2.00 2.27 2.48 2.65 2.95 3.08 3.12 3.02 2.56 2.01 1.58 1.36 1.14 0.93 0.79 0.75 0.70 0.73 0.80 0.77 0.65
2.56 2.67 2.48 2.37 2.44 2.61 2.65 2.49 3.03 3.32 3.37 3.36 2.81 2.69 2.34 2.19 2.04 1.89 1.90 1.75 1.84 1.90 1.93 1.94 2.08 2.25 2.78 3.42 3.75 3.78 3.52 2.82 2.19 1.84 1.61 1.38 1.16 1.00 0.81 0.73 0.73 0.67 0.60
2.44 2.68 2.39 2.36 2.53 2.77 2.83 2.90 3.29 3.37 3.21 3.36 2.85 2.50 2.12 1.78 1.70 1.68 1.55 1.55 1.55 1.53 1.66 1.98 2.27 2.03 2.46 3.04 3.36 3.58 3.85 3.72 3.08 2.36 2.05 1.84 1.66 1.40 1.09 0.91 0.83 0.81 0.72
2.58 2.93 2.60 2.79 2.71 2.75 2.80 2.97 3.21 3.17 2.99 3.34 3.37 2.65 1.88 1.44 1.42 1.31 1.26 1.32 1.29 1.36 1.61 2.09 2.40 2.45 2.21 2.19 2.39 2.77 3.38 3.76 3.57 2.95 2.56 2.33 2.19 1.84 1.45 1.25 1.10 0.97 0.89
2.74 2.72 2.87 2.78 2.81 2.89 2.71 2.80 3.11 2.96 2.60 3.00 3.31 3.24 2.42 1.87 1.44 1.01 1.12 1.18 1.28 1.46 1.50 1.58 2.00 2.46 2.30 2.42 2.15 1.97 2.55 3.26 3.72 3.66 3.27 2.88 2.55 2.17 1.86 1.67 1.41 1.18 1.00
2.80 2.82 2.73 2.63 2.72 2.67 2.59 2.59 2.81 2.91 2.68 2.68 3.08 3.42 2.78 2.11 1.65 1.18 1.07 1.04 1.37 1.69 1.66 1.66 1.81 2.13 2.24 2.50 2.61 2.43 2.18 2.38 3.11 3.97 4.06 3.45 2.79 2.29 2.01 1.92 1.85 1.59 1.36
3.06 2.83 2.66 2.55 2.46 2.37 2.47 2.24 2.51 2.72 2.79 2.46 2.61 2.71 2.56 2.45 2.32 1.68 1.28 1.18 1.47 1.69 1.80 1.78 1.84 2.01 2.14 2.48 2.75 2.57 2.05 1.84 2.18 3.17 3.88 3.82 3.24 2.52 2.12 2.15 2.45 2.33 1.89
3.12 2.79 2.70 2.62 2.52 2.38 2.30 2.26 2.44 2.36 2.40 2.38 2.43 2.46 2.48 2.47 2.33 2.10 1.71 1.55 1.51 1.30 1.34 1.50 1.74 1.98 2.07 2.28 2.61 2.47 2.22 2.11 2.04 2.15 2.52 2.90 3.09 2.83 2.54 2.55 2.97 3.23 2.97
2.72 2.53 2.46 2.41 2.30 2.30 2.30 2.27 2.26 2.22 2.26 2.34 2.32 2.31 2.41 2.43 2.38 2.42 2.09 1.82 1.66 1.40 1.36 1.44 1.58 1.75 1.84 1.92 1.96 2.11 2.06 2.02 1.89 1.79 1.79 1.92 2.19 2.50 2.72 2.95 3.36 3.72 3.85
1.98 1.97 2.06 2.09 2.04 2.07 2.09 2.21 2.11 2.03 2.12 2.25 2.21 2.22 2.31 2.32 2.38 2.47 2.36 1.95 1.81 1.62 1.68 1.58 1.48 1.64 1.68 1.85 2.01 1.97 1.71 1.70 1.55 1.48 1.47 1.51 1.68 1.92 2.11 2.33 2.79 3.30 3.71
1.73 1.80 1.89 1.87 1.83 1.86 1.82 2.04 1.91 1.85 1.93 1.98 1.90 2.22 2.23 2.00 2.20 2.34 2.41 2.40 2.19 2.02 2.08 1.87 1.62 1.59 1.71 1.86 1.97 1.92 1.64 1.51 1.30 1.20 1.20 1.22 1.27 1.42 1.61 1.84 2.09 2.36 2.67
1.74 1.80 1.78 1.84 1.83 1.87 1.92 2.02 1.88 1.82 1.99 1.93 1.90 2.11 2.07 1.96 2.05 2.16 2.37 2.53 2.61 2.40 2.26 2.12 1.82 1.66 1.70 1.76 1.97 1.81 1.82 1.66 1.35 1.23 1.16 1.12 1.10 1.17 1.31 1.51 1.68 1.83 2.05
1.80 1.83 1.83 1.91 1.84 1.79 1.81 1.86 1.67 1.69 1.89 1.94 2.01 2.19 2.15 2.06 2.12 2.17 2.32 2.58 2.81 2.79 2.43 2.00 1.83 1.77 1.88 1.81 2.01 1.78 1.72 1.75 1.48 1.25 1.14 1.14 1.12 1.13 1.19 1.34 1.50 1.64 1.77
1.81 1.76 1.72 1.75 1.74 1.70 1.74 1.77 1.61 1.73 1.85 1.90 1.91 2.05 2.11 2.22 2.26 2.27 2.40 2.52 2.75 2.98 2.69 2.18 2.06 2.07 2.19 2.17 2.06 1.83 1.62 1.54 1.38 1.32 1.16 1.09 1.09 1.12 1.18 1.24 1.37 1.50 1.58
1.80 1.80 1.78 1.77 1.66 1.68 1.85 1.89 1.79 1.86 1.93 1.90 1.94 2.07 1.99 2.15 2.31 2.29 2.40 2.41 2.51 2.82 2.73 2.47 2.41 2.36 2.34 2.25 2.24 2.06 1.73 1.57 1.50 1.46 1.24 1.12 1.11 1.10 1.13 1.16 1.26 1.42 1.54
1.84 1.92 1.94 1.95 1.92 1.94 1.95 2.00 2.09 2.07 1.99 1.90 1.96 1.96 1.93 2.11 2.14 2.25 2.38 2.34 2.32 2.48 2.65 2.59 2.55 2.62 2.59 2.47 2.38 2.19 2.00 1.93 1.63 1.55 1.46 1.35 1.32 1.29 1.28 1.27 1.27 1.34 1.45
1.90 2.01 2.01 2.13 2.28 2.33 2.32 2.26 2.17 2.12 2.06 2.00 1.97 1.92 1.89 1.93 1.98 2.06 2.18 2.27 2.34 2.46 2.59 2.62 2.66 2.79 2.76 2.80 2.75 2.53 2.40 2.31 1.99 1.62 1.62 1.52 1.45 1.36 1.27 1.20 1.18 1.24 1.35
1.79 2.08 2.21 2.28 2.53 2.67 2.50 2.50 2.43 2.33 2.32 2.15 2.02 1.93 1.80 1.81 1.87 1.91 1.88 1.99 2.13 2.27 2.30 2.39 2.47 2.68 2.75 2.85 2.84 2.69 2.57 2.54 2.35 1.92 1.75 1.62 1.55 1.43 1.39 1.36 1.27 1.22 1.26
1.69 1.86 2.00 2.11 2.16 2.02 2.16 2.18 2.16 2.20 2.23 2.13 2.06 1.98 1.83 1.74 1.72 1.68 1.58 1.60 1.68 1.79 1.98 2.21 2.29 2.48 2.67 2.82 3.02 3.08 2.92 2.73 2.58 2.29 2.16 2.02 1.77 1.68 1.50 1.36 1.34 1.16 1.06
1.65 1.73 1.76 1.83 1.80 1.87 1.89 1.68 1.61 1.59 1.76 1.87 1.94 1.92 1.70 1.55 1.63 1.55 1.58 1.54 1.54 1.65 1.75 1.97 2.15 2.25 2.47 2.67 2.91 3.06 3.05 2.93 2.74 2.57 2.44 2.31 1.98 1.78 1.58 1.45 1.37 1.12 0.98
1.69 1.67 1.70 1.75 1.83 1.84 1.75 1.52 1.49 1.45 1.58 1.70 1.77 1.80 1.77 1.70 1.69 1.72 1.64 1.52 1.44 1.51 1.61 1.58 1.63 1.79 2.05 2.41 2.59 2.64 2.79 2.81 2.67 2.50 2.42 2.40 2.14 1.93 1.71 1.58 1.51 1.22 1.05
1.89 1.85 1.91 1.93 1.92 1.87 1.74 1.53 1.51 1.46 1.58 1.62 1.63 1.64 1.65 1.61 1.69 1.57 1.46 1.44 1.43 1.46 1.45 1.42 1.38 1.42 1.56 1.78 2.12 2.28 2.38 2.35 2.24 2.00 1.88 1.96 1.94 1.90 1.82 1.70 1.52 1.37 1.17
2.30 2.34 2.23 2.08 1.96 1.86 1.83 1.54 1.43 1.39 1.48 1.56 1.64 1.60 1.54 1.41 1.39 1.33 1.31 1.43 1.40 1.39 1.43 1.37 1.27 1.21 1.16 1.31 1.63 1.81 1.90 1.94 1.84 1.78 1.52 1.50 1.54 1.59 1.71 1.58 1.42 1.35 1.27

GEFSMA_prec_meanprecacc_246.txt.gz
Total_Precipitation_Accumulation
2.11 2.18 2.26 2.28 2.10 2.21 2.38 2.63 2.53 2.60 2.64 2.42 2.13 2.01 2.11 2.13 2.21 2.24 2.18 2.38 2.32 2.33 2.82 2.95 2.63 2.27 2.08 1.79 1.57 1.32 1.18 1.10 0.98 0.79 0.68 0.73 0.78 0.84 0.78 0.68 0.64 0.61 0.52
2.49 2.42 2.29 2.32 2.21 2.21 2.31 2.53 2.61 2.96 2.96 2.88 2.42 2.23 2.27 2.31 2.32 2.43 2.34 2.57 2.46 2.22 2.48 2.77 2.86 2.71 2.45 2.23 1.96 1.67 1.44 1.33 1.18 0.93 0.79 0.74 0.77 0.84 0.81 0.81 0.76 0.71 0.61
2.65 2.56 2.49 2.31 2.30 2.36 2.54 2.62 2.70 2.98 3.00 2.93 2.76 2.58 2.45 2.21 2.09 2.15 2.16 2.30 2.26 2.16 2.28 2.53 2.81 2.92 2.82 2.68 2.52 2.24 1.88 1.60 1.38 1.13 0.93 0.79 0.71 0.78 0.80 0.84 0.86 0.84 0.73
2.69 2.73 2.53 2.28 2.39 2.38 2.55 2.83 2.94 3.10 3.26 3.27 2.99 2.74 2.58 2.41 2.18 2.10 1.97 1.96 2.17 1.84 2.07 2.37 2.56 2.74 3.06 3.22 3.27 3.16 2.68 2.12 1.66 1.42 1.18 0.97 0.84 0.81 0.77 0.82 0.88 0.85 0.76
2.59 2.70 2.51 2.40 2.47 2.66 2.71 2.54 3.08 3.37 3.42 3.42 2.86 2.74 2.40 2.25 2.08 1.94 1.96 1.81 1.90 1.96 2.00 2.03 2.19 2.36 2.90 3.58 3.93 3.97 3.71 2.97 2.29 1.93 1.70 1.47 1.24 1.07 0.88 0.81 0.82 0.77 0.71
2.49 2.72 2.43 2.40 2.56 2.81 2.88 2.96 3.34 3.42 3.28 3.45 2.90 2.53 2.17 1.82 1.74 1.73 1.61 1.62 1.62 1.59 1.72 2.06 2.34 2.11 2.55 3.18 3.53 3.78 4.07 3.94 3.26 2.52 2.18 1.94 1.75 1.47 1.15 0.97 0.90 0.88 0.81
2.63 2.99 2.66 2.84 2.76 2.80 2.84 3.02 3.27 3.22 3.04 3.39 3.41 2.68 1.90 1.48 1.46 1.35 1.31 1.38 1.35 1.42 1.67 2.15 2.46 2.51 2.29 2.29 2.51 2.91 3.53 3.93 3.75 3.12 2.70 2.46 2.31 1.95 1.56 1.33 1.17 1.03 0.95
2.79 2.79 2.97 2.87 2.88 2.95 2.76 2.84 3.15 3.00 2.64 3.04 3.35 3.28 2.44 1.90 1.47 1.04 1.16 1.22 1.32 1.51 1.55 1.64 2.05 2.53 2.40 2.50 2.26 2.11 2.68 3.38 3.84 3.78 3.38 3.01 2.68 2.30 1.97 1.76 1.50 1.26 1.07
2.83 2.87 2.80 2.72 2.80 2.73 2.66 2.66 2.85 2.94 2.73 2.74 3.13 3.46 2.81 2.13 1.68 1.24 1.16 1.11 1.41 1.74 1.72 1.72 1.87 2.21 2.33 2.58 2.70 2.55 2.30 2.49 3.22 4.09 4.18 3.60 2.91 2.39 2.10 2.02 1.95 1.70 1.46
3.08 2.87 2.69 2.59 2.51 2.43 2.53 2.31 2.57 2.76 2.83 2.53 2.67 2.76 2.61 2.50 2.37 1.73 1.34 1.23 1.51 1.73 1.84 1.83 1.89 2.08 2.26 2.59 2.85 2.68 2.16 1.92 2.26 3.27 3.99 3.95 3.38 2.65 2.24 2.26 2.57 2.45 2.01
3.13 2.80 2.72 2.64 2.54 2.41 2.35 2.31 2.51 2.43 2.46 2.44 2.48 2.51 2.56 2.54 2.38 2.13 1.74 1.58 1.53 1.32 1.36 1.53 1.77 2.02 2.13 2.35 2.68 2.56 2.32 2.19 2.10 2.20 2.56 2.96 3.17 2.94 2.68 2.70 3.13 3.37 3.11
2.72 2.53 2.47 2.43 2.32 2.31 2.32 2.31 2.32 2.29 2.32 2.38 2.36 2.34 2.46 2.48 2.43 2.46 2.12 1.85 1.67 1.42 1.37 1.45 1.60 1.77 1.87 1.96 2.01 2.17 2.12 2.08 1.95 1.85 1.85 1.98 2.26 2.59 2.84 3.09 3.51 3.88 4.01
2.00 1.99 2.08 2.11 2.05 2.08 2.11 2.24 2.15 2.07 2.15 2.28 2.24 2.25 2.34 2.35 2.42 2.53 2.42 2.00 1.84 1.65 1.70 1.60 1.50 1.66 1.71 1.88 2.06 2.03 1.77 1.74 1.60 1.54 1.54 1.59 1.76 1.99 2.19 2.43 2.90 3.41 3.82
1.74 1.81 1.91 1.88 1.84 1.87 1.83 2.05 1.92 1.87 1.96 2.01 1.93 2.24 2.25 2.02 2.24 2.39 2.45 2.44 2.22 2.04 2.09 1.88 1.64 1.61 1.74 1.90 2.02 1.96 1.67 1.54 1.34 1.24 1.25 1.26 1.32 1.47 1.67 1.90 2.15 2.44 2.76
1.75 1.81 1.80 1.85 1.85 1.87 1.93 2.03 1.89 1.84 2.02 1.96 1.93 2.15 2.11 1.98 2.07 2.19 2.39 2.55 2.64 2.43 2.28 2.13 1.84 1.68 1.72 1.78 2.00 1.85 1.85 1.69 1.38 1.26 1.20 1.16 1.13 1.20 1.34 1.55 1.73 1.89 2.11
1.81 1.84 1.84 1.93 1.85 1.79 1.82 1.87 1.68 1.70 1.90 1.95 2.03 2.21 2.18 2.09 2.14 2.18 2.33 2.59 2.83 2.81 2.45 2.01 1.84 1.79 1.89 1.84 2.05 1.81 1.75 1.77 1.50 1.28 1.17 1.18 1.16 1.17 1.22 1.38 1.55 1.69 1.83
1.83 1.78 1.75 1.77 1.75 1.71 1.75 1.79 1.62 1.75 1.88 1.92 1.93 2.08 2.14 2.25 2.29 2.29 2.41 2.54 2.77 3.00 2.70 2.19 2.08 2.08 2.20 2.19 2.09 1.86 1.64 1.56 1.40 1.34 1.19 1.12 1.12 1.16 1.21 1.28 1.41 1.54 1.62
1.82 1.83 1.81 1.78 1.68 1.70 1.87 1.92 1.82 1.91 1.97 1.93 1.96 2.09 2.00 2.17 2.33 2.31 2.41 2.42 2.52 2.83 2.74 2.48 2.42 2.38 2.36 2.28 2.27 2.09 1.76 1.60 1.52 1.50 1.28 1.15 1.13 1.12 1.15 1.18 1.28 1.45 1.57
1.88 1.95 1.96 1.96 1.93 1.96 1.97 2.03 2.12 2.11 2.02 1.93 1.98 1.98 1.95 2.14 2.15 2.26 2.38 2.35 2.33 2.49 2.66 2.61 2.57 2.65 2.61 2.49 2.40 2.22 2.02 1.95 1.66 1.58 1.50 1.39 1.36 1.32 1.30 1.29 1.29 1.36 1.48
1.92 2.02 2.02 2.14 2.30 2.34 2.33 2.27 2.19 2.14 2.08 2.03 2.01 1.96 1.92 1.95 1.99 2.08 2.20 2.28 2.35 2.48 2.61 2.65 2.69 2.81 2.78 2.81 2.77 2.54 2.41 2.32 1.99 1.64 1.64 1.55 1.49 1.38 1.29 1.22 1.19 1.25 1.36
1.80 2.09 2.21 2.28 2.54 2.68 2.51 2.51 2.44 2.35 2.34 2.18 2.05 1.96 1.83 1.84 1.90 1.92 1.89 2.00 2.14 2.28 2.32 2.41 2.51 2.72 2.78 2.87 2.85 2.70 2.57 2.55 2.36 1.93 1.76 1.64 1.58 1.46 1.41 1.37 1.27 1.23 1.26
1.70 1.87 2.01 2.12 2.17 2.02 2.17 2.19 2.17 2.21 2.25 2.14 2.07 2.01 1.86 1.76 1.73 1.69 1.60 1.62 1.70 1.81 2.00 2.23 2.31 2.51 2.70 2.85 3.03 3.09 2.92 2.74 2.59 2.30 2.16 2.03 1.77 1.69 1.51 1.37 1.35 1.17 1.06
1.65 1.74 1.78 1.84 1.81 1.88 1.90 1.69 1.63 1.61 1.78 1.89 1.96 1.95 1.72 1.57 1.64 1.56 1.59 1.55 1.55 1.66 1.77 1.99 2.17 2.26 2.49 2.69 2.93 3.07 3.06 2.94 2.74 2.58 2.44 2.31 1.99 1.78 1.58 1.46 1.38 1.13 0.98
1.72 1.71 1.75 1.80 1.88 1.87 1.76 1.53 1.50 1.46 1.60 1.72 1.79 1.82 1.79 1.71 1.71 1.74 1.65 1.54 1.46 1.53 1.62 1.59 1.63 1.79 2.06 2.42 2.60 2.65 2.80 2.83 2.69 2.51 2.43 2.40 2.14 1.93 1.71 1.59 1.51 1.23 1.06
1.93 1.88 1.95 1.98 1.96 1.89 1.76 1.54 1.53 1.47 1.59 1.63 1.64 1.66 1.67 1.63 1.71 1.59 1.48 1.45 1.44 1.48 1.46 1.43 1.39 1.43 1.57 1.80 2.13 2.29 2.39 2.36 2.26 2.02 1.89 1.96 1.94 1.90 1.83 1.70 1.53 1.37 1.17
2.35 2.37 2.26 2.10 1.98 1.88 1.85 1.55 1.45 1.40 1.49 1.57 1.65 1.61 1.55 1.43 1.41 1.35 1.32 1.43 1.41 1.40 1.43 1.37 1.28 1.21 1.17 1.32 1.64 1.82 1.91 1.95 1.85 1.79 1.53 1.51 1.54 1.60 1.71 1.58 1.42 1.35 1.27

GEFSMA_prec_meanprecacc_252.txt.gz
Total_Precipitation_Accumulation
2.22 2.27 2.34 2.36 2.18 2.27 2.44 2.70 2.60 2.65 2.69 2.46 2.16 2.04 2.14 2.17 2.26 2.29 2.25 2.46 2.40 2.43 2.93 3.06 2.74 2.37 2.16 1.85 1.61 1.36 1.21 1.14 1.03 0.82 0.72 0.76 0.83 0.89 0.82 0.71 0.66 0.63 0.55
2.57 2.52 2.37 2.40 2.28 2.26 2.35 2.58 2.67 3.03 3.02 2.93 2.46 2.25 2.30 2.36 2.38 2.49 2.39 2.65 2.54 2.32 2.60 2.91 2.99 2.81 2.55 2.33 2.04 1.75 1.51 1.39 1.23 0.97 0.84 0.78 0.82 0.89 0.86 0.85 0.80 0.74 0.65
2.72 2.66 2.58 2.38 2.35 2.41 2.61 2.69 2.76 3.04 3.06 2.98 2.80 2.61 2.48 2.25 2.13 2.20 2.21 2.37 2.34 2.26 2.38 2.64 2.94 3.03 2.93 2.79 2.63 2.37 1.99 1.69 1.45 1.19 0.99 0.84 0.76 0.82 0.84 0.89 0.92 0.90 0.79
2.73 2.81 2.61 2.36 2.44 2.42 2.61 2.91 3.01 3.17 3.35 3.35 3.06 2.78 2.62 2.47 2.25 2.18 2.05 2.03 2.26 1.95 2.18 2.48 2.68 2.84 3.16 3.33 3.39 3.30 2.82 2.23 1.77 1.52 1.26 1.03 0.88 0.83 0.79 0.85 0.93 0.91 0.81
2.63 2.76 2.59 2.49 2.52 2.70 2.76 2.58 3.14 3.46 3.52 3.52 2.93 2.81 2.47 2.33 2.17 2.02 2.06 1.89 1.99 2.05 2.08 2.10 2.26 2.44 3.02 3.73 4.09 4.13 3.87 3.10 2.40 2.04 1.80 1.55 1.30 1.10 0.92 0.86 0.87 0.80 0.74
2.54 2.77 2.48 2.47 2.62 2.87 2.96 3.04 3.45 3.53 3.37 3.55 2.96 2.58 2.21 1.86 1.79 1.80 1.68 1.67 1.66 1.64 1.79 2.15 2.47 2.22 2.65 3.31 3.67 3.92 4.21 4.09 3.43 2.66 2.30 2.05 1.83 1.55 1.23 1.05 0.96 0.92 0.85
2.68 3.05 2.71 2.91 2.83 2.87 2.93 3.11 3.37 3.32 3.12 3.46 3.47 2.74 1.95 1.52 1.50 1.39 1.35 1.43 1.39 1.47 1.73 2.23 2.56 2.62 2.38 2.36 2.60 3.02 3.67 4.12 3.98 3.33 2.90 2.63 2.45 2.06 1.67 1.44 1.27 1.12 1.03
2.83 2.84 3.03 2.93 2.95 3.01 2.83 2.92 3.23 3.07 2.71 3.11 3.42 3.34 2.49 1.95 1.50 1.05 1.18 1.24 1.35 1.54 1.59 1.68 2.10 2.60 2.49 2.57 2.35 2.21 2.79 3.52 3.98 3.94 3.57 3.18 2.84 2.44 2.10 1.88 1.62 1.38 1.17
2.86 2.91 2.84 2.78 2.86 2.79 2.73 2.75 2.94 3.03 2.83 2.84 3.23 3.54 2.88 2.20 1.72 1.26 1.17 1.13 1.43 1.76 1.75 1.77 1.93 2.28 2.40 2.66 2.80 2.67 2.41 2.62 3.34 4.23 4.33 3.75 3.03 2.48 2.19 2.10 2.05 1.83 1.61
3.12 2.92 2.74 2.64 2.57 2.48 2.59 2.37 2.65 2.85 2.96 2.66 2.79 2.84 2.68 2.57 2.42 1.77 1.36 1.25 1.53 1.75 1.87 1.86 1.93 2.13 2.31 2.64 2.91 2.74 2.23 2.00 2.36 3.38 4.13 4.09 3.49 2.74 2.34 2.39 2.71 2.59 2.17
3.17 2.84 2.76 2.70 2.61 2.46 2.39 2.35 2.55 2.49 2.56 2.55 2.55 2.59 2.63 2.60 2.43 2.17 1.79 1.64 1.58 1.35 1.39 1.55 1.80 2.06 2.17 2.38 2.73 2.59 2.34 2.22 2.16 2.28 2.65 3.05 3.27 3.05 2.78 2.82 3.25 3.51 3.26
2.77 2.56 2.50 2.46 2.36 2.35 2.36 2.34 2.36 2.33 2.39 2.45 2.42 2.41 2.52 2.54 2.50 2.53 2.20 1.96 1.76 1.48 1.42 1.49 1.65 1.81 1.90 2.00 2.04 2.19 2.14 2.11 2.01 1.92 1.91 2.03 2.31 2.65 2.91 3.18 3.61 3.99 4.13
2.03 2.03 2.10 2.14 2.08 2.12 2.14 2.26 2.19 2.11 2.21 2.34 2.31 2.29 2.38 2.40 2.47 2.61 2.52 2.08 1.90 1.70 1.75 1.63 1.53 1.70 1.74 1.91 2.08 2.04 1.79 1.79 1.64 1.58 1.58 1.63 1.80 2.05 2.27 2.50 2.99 3.51 3.92
1.76 1.84 1.93 1.91 1.87 1.89 1.85 2.08 1.94 1.90 2.00 2.05 1.97 2.28 2.28 2.06 2.28 2.45 2.52 2.52 2.28 2.10 2.13 1.90 1.66 1.64 1.76 1.91 2.05 1.98 1.69 1.56 1.35 1.26 1.27 1.29 1.34 1.50 1.73 1.96 2.22 2.51 2.82
1.77 1.83 1.82 1.87 1.87 1.89 1.95 2.05 1.90 1.86 2.04 2.00 1.96 2.18 2.14 2.01 2.10 2.22 2.42 2.60 2.69 2.47 2.31 2.15 1.86 1.70 1.73 1.80 2.03 1.87 1.87 1.71 1.39 1.28 1.22 1.17 1.14 1.22 1.36 1.57 1.76 1.92 2.15
1.84 1.86 1.86 1.95 1.88 1.81 1.83 1.88 1.69 1.71 1.93 1.99 2.07 2.25 2.21 2.12 2.17 2.22 2.36 2.62 2.87 2.85 2.47 2.03 1.86 1.80 1.90 1.85 2.06 1.83 1.77 1.80 1.52 1.29 1.18 1.18 1.17 1.18 1.24 1.40 1.57 1.72 1.85
1.85 1.80 1.78 1.80 1.78 1.73 1.77 1.80 1.63 1.77 1.91 1.96 1.98 2.13 2.19 2.30 2.35 2.34 2.45 2.57 2.81 3.04 2.73 2.21 2.10 2.10 2.21 2.20 2.10 1.87 1.66 1.58 1.42 1.37 1.20 1.14 1.13 1.17 1.23 1.29 1.42 1.56 1.64
1.84 1.85 1.84 1.81 1.69 1.71 1.88 1.94 1.84 1.93 2.00 1.97 2.01 2.17 2.08 2.23 2.39 2.36 2.46 2.46 2.56 2.87 2.77 2.51 2.45 2.40 2.38 2.29 2.29 2.10 1.77 1.61 1.53 1.52 1.30 1.17 1.15 1.14 1.17 1.19 1.29 1.46 1.58
1.91 1.98 1.98 1.98 1.95 1.97 1.98 2.05 2.15 2.13 2.05 1.96 2.02 2.03 2.00 2.19 2.20 2.29 2.42 2.38 2.37 2.53 2.70 2.64 2.60 2.67 2.63 2.52 2.44 2.25 2.05 1.97 1.67 1.60 1.51 1.41 1.38 1.35 1.32 1.31 1.31 1.38 1.49
1.96 2.06 2.06 2.17 2.32 2.36 2.35 2.31 2.22 2.15 2.09 2.05 2.03 1.98 1.95 1.98 2.01 2.09 2.21 2.31 2.38 2.51 2.64 2.67 2.72 2.85 2.82 2.86 2.83 2.61 2.47 2.37 2.03 1.67 1.67 1.57 1.50 1.40 1.30 1.23 1.21 1.26 1.38
1.82 2.10 2.24 2.31 2.57 2.71 2.53 2.53 2.45 2.35 2.35 2.18 2.06 1.97 1.84 1.86 1.92 1.94 1.90 2.01 2.16 2.31 2.34 2.44 2.53 2.74 2.81 2.91 2.90 2.75 2.63 2.61 2.41 1.97 1.80 1.67 1.59 1.48 1.45 1.40 1.30 1.24 1.27
1.70 1.88 2.01 2.12 2.17 2.03 2.17 2.19 2.18 2.22 2.25 2.15 2.08 2.02 1.87 1.78 1.75 1.70 1.61 1.62 1.71 1.83 2.02 2.25 2.33 2.53 2.72 2.88 3.07 3.12 2.95 2.77 2.63 2.34 2.20 2.06 1.80 1.71 1.54 1.40 1.37 1.18 1.07
1.66 1.75 1.78 1.84 1.81 1.88 1.90 1.69 1.64 1.61 1.78 1.90 1.97 1.96 1.73 1.57 1.65 1.57 1.59 1.55 1.55 1.67 1.78 2.02 2.20 2.28 2.51 2.71 2.96 3.11 3.09 2.96 2.77 2.61 2.47 2.34 2.01 1.80 1.60 1.48 1.40 1.13 0.98
1.73 1.71 1.76 1.80 1.88 1.87 1.76 1.53 1.51 1.47 1.61 1.72 1.79 1.83 1.79 1.72 1.71 1.75 1.66 1.54 1.47 1.54 1.63 1.60 1.65 1.81 2.08 2.44 2.62 2.67 2.82 2.86 2.72 2.54 2.45 2.42 2.16 1.94 1.73 1.60 1.53 1.23 1.06
1.94 1.89 1.96 1.99 1.97 1.89 1.76 1.56 1.54 1.49 1.60 1.64 1.64 1.66 1.68 1.63 1.72 1.60 1.49 1.47 1.46 1.49 1.47 1.44 1.40 1.44 1.59 1.81 2.14 2.30 2.41 2.38 2.28 2.03 1.91 1.98 1.95 1.91 1.84 1.71 1.54 1.38 1.18
2.36 2.38 2.27 2.12 1.99 1.89 1.86 1.57 1.47 1.41 1.50 1.57 1.65 1.61 1.55 1.43 1.41 1.36 1.34 1.45 1.44 1.42 1.44 1.38 1.29 1.22 1.18 1.33 1.65 1.83 1.92 1.97 1.87 1.81 1.55 1.53 1.57 1.62 1.74 1.61 1.44 1.36 1.28

GEFSMA_prec_meanprecacc_258.txt.gz
Total_Precipitation_Accumulation
2.37 2.41 2.46 2.47 2.30 2.39 2.57 2.84 2.70 2.74 2.76 2.52 2.20 2.07 2.18 2.25 2.35 2.40 2.35 2.53 2.46 2.52 3.06 3.17 2.83 2.44 2.22 1.91 1.66 1.41 1.27 1.21 1.09 0.87 0.75 0.79 0.86 0.92 0.85 0.75 0.71 0.68 0.60
2.70 2.66 2.51 2.52 2.38 2.36 2.47 2.70 2.75 3.11 3.08 2.98 2.51 2.30 2.34 2.43 2.46 2.58 2.49 2.73 2.60 2.39 2.69 2.99 3.07 2.89 2.62 2.39 2.12 1.82 1.60 1.48 1.31 1.03 0.89 0.83 0.88 0.96 0.91 0.89 0.83 0.78 0.69
2.82 2.78 2.69 2.50 2.45 2.49 2.69 2.78 2.84 3.11 3.13 3.04 2.88 2.69 2.55 2.32 2.18 2.26 2.30 2.46 2.41 2.33 2.45 2.70 3.01 3.10 2.99 2.86 2.71 2.47 2.10 1.80 1.55 1.28 1.08 0.92 0.83 0.87 0.88 0.93 0.96 0.94 0.84
2.80 2.91 2.71 2.45 2.52 2.48 2.65 2.96 3.07 3.26 3.45 3.44 3.17 2.87 2.69 2.53 2.29 2.23 2.12 2.10 2.34 2.04 2.26 2.55 2.76 2.90 3.23 3.42 3.51 3.43 2.95 2.37 1.90 1.65 1.41 1.15 0.96 0.89 0.84 0.89 0.97 0.96 0.86
2.67 2.84 2.67 2.57 2.61 2.78 2.81 2.64 3.22 3.55 3.63 3.61 3.01 2.87 2.52 2.38 2.21 2.07 2.11 1.96 2.08 2.15 2.18 2.19 2.33 2.51 3.10 3.84 4.21 4.26 4.01 3.25 2.56 2.19 1.96 1.69 1.40 1.18 0.97 0.90 0.91 0.85 0.77
2.58 2.84 2.58 2.57 2.71 2.97 3.05 3.15 3.57 3.65 3.49 3.65 3.03 2.65 2.26 1.90 1.84 1.85 1.73 1.73 1.73 1.71 1.89 2.27 2.60 2.32 2.74 3.39 3.76 4.01 4.32 4.22 3.56 2.81 2.45 2.18 1.96 1.65 1.31 1.11 1.01 0.98 0.90
2.71 3.12 2.77 3.02 2.93 2.98 3.04 3.21 3.49 3.46 3.25 3.55 3.55 2.85 2.03 1.58 1.57 1.45 1.42 1.49 1.45 1.51 1.78 2.31 2.68 2.74 2.49 2.44 2.67 3.10 3.76 4.23 4.11 3.49 3.07 2.80 2.61 2.20 1.77 1.54 1.36 1.21 1.11
2.84 2.89 3.10 3.02 3.04 3.12 2.94 3.03 3.35 3.20 2.82 3.24 3.55 3.47 2.59 2.04 1.59 1.12 1.22 1.28 1.39 1.59 1.63 1.72 2.18 2.70 2.59 2.67 2.41 2.25 2.84 3.59 4.06 4.05 3.71 3.33 2.99 2.58 2.21 1.99 1.73 1.47 1.23
2.87 2.94 2.89 2.84 2.94 2.87 2.83 2.83 3.04 3.14 2.96 2.98 3.37 3.67 2.99 2.32 1.81 1.32 1.22 1.16 1.47 1.81 1.80 1.82 1.98 2.34 2.48 2.75 2.88 2.72 2.45 2.67 3.44 4.38 4.50 3.90 3.18 2.61 2.29 2.20 2.15 1.91 1.68
3.14 2.94 2.76 2.69 2.64 2.56 2.66 2.44 2.72 2.95 3.07 2.77 2.90 2.95 2.78 2.68 2.51 1.83 1.42 1.30 1.58 1.83 1.95 1.91 1.97 2.17 2.36 2.69 2.95 2.78 2.27 2.03 2.41 3.47 4.24 4.22 3.62 2.85 2.44 2.48 2.80 2.68 2.27
3.20 2.85 2.80 2.73 2.66 2.53 2.44 2.38 2.60 2.55 2.64 2.63 2.65 2.69 2.72 2.69 2.50 2.24 1.86 1.72 1.68 1.46 1.48 1.63 1.88 2.12 2.24 2.46 2.78 2.63 2.37 2.25 2.20 2.33 2.72 3.13 3.35 3.13 2.86 2.90 3.33 3.59 3.36
2.81 2.59 2.53 2.50 2.40 2.39 2.40 2.38 2.41 2.37 2.45 2.52 2.51 2.50 2.60 2.61 2.56 2.59 2.28 2.05 1.86 1.59 1.51 1.57 1.71 1.87 1.97 2.06 2.08 2.24 2.18 2.15 2.04 1.95 1.94 2.06 2.35 2.69 2.97 3.24 3.67 4.06 4.22
2.08 2.07 2.14 2.18 2.12 2.17 2.19 2.32 2.25 2.17 2.27 2.41 2.38 2.37 2.45 2.47 2.54 2.66 2.57 2.14 1.97 1.78 1.83 1.68 1.57 1.74 1.79 1.95 2.12 2.08 1.82 1.81 1.66 1.59 1.59 1.64 1.82 2.08 2.31 2.55 3.03 3.57 4.00
1.79 1.87 1.97 1.94 1.90 1.93 1.89 2.13 2.00 1.95 2.06 2.11 2.03 2.35 2.36 2.13 2.34 2.51 2.59 2.59 2.36 2.19 2.22 1.96 1.72 1.69 1.81 1.95 2.10 2.02 1.71 1.58 1.37 1.27 1.28 1.29 1.35 1.52 1.75 1.99 2.25 2.55 2.88
1.80 1.87 1.85 1.90 1.89 1.92 1.98 2.09 1.94 1.89 2.09 2.04 2.00 2.23 2.20 2.07 2.16 2.28 2.50 2.69 2.80 2.58 2.41 2.22 1.91 1.74 1.76 1.83 2.06 1.90 1.89 1.73 1.41 1.29 1.23 1.18 1.15 1.23 1.38 1.58 1.77 1.95 2.20
1.87 1.89 1.89 1.97 1.89 1.83 1.86 1.91 1.72 1.74 1.96 2.03 2.11 2.31 2.27 2.18 2.24 2.30 2.45 2.73 3.00 2.96 2.54 2.07 1.91 1.83 1.92 1.86 2.09 1.85 1.79 1.82 1.54 1.31 1.20 1.19 1.17 1.19 1.25 1.40 1.58 1.73 1.88
1.88 1.82 1.80 1.81 1.80 1.75 1.79 1.83 1.65 1.79 1.94 1.99 2.02 2.18 2.24 2.36 2.42 2.42 2.53 2.66 2.91 3.14 2.82 2.27 2.14 2.13 2.24 2.22 2.13 1.90 1.68 1.59 1.43 1.37 1.21 1.15 1.14 1.18 1.23 1.30 1.43 1.57 1.66
1.86 1.87 1.86 1.82 1.71 1.73 1.91 1.97 1.86 1.95 2.03 2.00 2.04 2.20 2.11 2.27 2.45 2.41 2.51 2.52 2.63 2.96 2.84 2.56 2.50 2.44 2.42 2.33 2.33 2.14 1.81 1.63 1.55 1.53 1.31 1.18 1.16 1.15 1.18 1.20 1.31 1.48 1.61
1.93 1.99 2.00 2.00 1.97 1.99 2.00 2.08 2.17 2.14 2.07 1.99 2.04 2.06 2.03 2.22 2.22 2.32 2.45 2.42 2.42 2.59 2.76 2.68 2.64 2.72 2.67 2.56 2.47 2.29 2.10 2.03 1.71 1.62 1.53 1.43 1.40 1.37 1.34 1.32 1.32 1.39 1.51
1.98 2.08 2.08 2.20 2.35 2.39 2.38 2.34 2.24 2.16 2.11 2.07 2.05 2.00 1.97 2.00 2.03 2.11 2.23 2.35 2.43 2.56 2.69 2.73 2.76 2.88 2.85 2.89 2.87 2.64 2.52 2.42 2.08 1.69 1.69 1.60 1.53 1.42 1.33 1.25 1.22 1.28 1.39
1.83 2.13 2.27 2.35 2.61 2.73 2.55 2.55 2.47 2.37 2.36 2.19 2.07 1.98 1.85 1.87 1.93 1.96 1.92 2.04 2.19 2.34 2.39 2.48 2.57 2.77 2.84 2.94 2.93 2.77 2.65 2.64 2.45 2.00 1.84 1.71 1.64 1.52 1.48 1.43 1.32 1.26 1.29
1.71 1.89 2.03 2.15 2.20 2.04 2.18 2.19 2.18 2.23 2.26 2.16 2.09 2.03 1.89 1.79 1.75 1.70 1.61 1.63 1.73 1.86 2.05 2.28 2.36 2.56 2.75 2.90 3.10 3.14 2.98 2.79 2.66 2.37 2.24 2.10 1.84 1.76 1.59 1.44 1.41 1.21 1.10
1.66 1.76 1.79 1.86 1.83 1.89 1.91 1.70 1.64 1.62 1.79 1.91 1.98 1.97 1.74 1.58 1.66 1.58 1.60 1.56 1.56 1.68 1.80 2.04 2.22 2.30 2.53 2.74 2.98 3.13 3.12 2.99 2.79 2.63 2.50 2.38 2.05 1.84 1.65 1.52 1.44 1.17 1.01
1.74 1.72 1.77 1.82 1.90 1.88 1.77 1.54 1.52 1.48 1.61 1.73 1.80 1.83 1.80 1.72 1.72 1.76 1.67 1.55 1.47 1.54 1.64 1.60 1.66 1.83 2.10 2.46 2.64 2.69 2.85 2.87 2.73 2.55 2.48 2.44 2.19 1.98 1.76 1.64 1.56 1.26 1.08
1.95 1.91 1.98 2.01 1.98 1.90 1.77 1.56 1.54 1.50 1.61 1.64 1.65 1.66 1.68 1.64 1.72 1.60 1.50 1.48 1.47 1.50 1.48 1.45 1.40 1.45 1.60 1.82 2.16 2.32 2.42 2.39 2.29 2.05 1.93 2.00 1.98 1.94 1.88 1.75 1.58 1.43 1.21
2.38 2.40 2.29 2.14 2.01 1.90 1.87 1.58 1.47 1.41 1.50 1.58 1.66 1.62 1.56 1.44 1.42 1.37 1.35 1.46 1.45 1.43 1.46 1.39 1.30 1.23 1.19 1.34 1.67 1.85 1.94 1.99 1.89 1.84 1.58 1.57 1.61 1.67 1.79 1.66 1.49 1.41 1.31